Weather History for KMSV - February, 2014

Change the Weather History Date:

Wednesday, February 12, 2014

  Actual Average Record
Temperature  
Mean Temperature 7 °F -  
Max Temperature 21 °F 31 °F 53 °F (1999)
Min Temperature -7 °F 16 °F -7 °F (2014)
Degree Days  
Heating Degree Days 58    
Moisture  
Dew Point -4 °F    
Average Humidity 59    
Maximum Humidity 100    
Minimum Humidity 36    
Precipitation  
Precipitation 0.00 in - - ()
Sea Level Pressure  
Sea Level Pressure 30.37 in    
Wind  
Wind Speed 4 mph (ESE)    
Max Wind Speed 13 mph    
Max Gust Speed -    
Visibility 10 miles    
Events      
Averages and records for this station are not official NWS values.
T = Trace of Precipitation, MM = Missing Value Source: NWS Daily Summary

Daily Weather History Graph

Daily Weather History Graph

Search for Another Location

Airport or City:

Trip Planner

Search our weather history database for the weather conditions in past years. The results will help you decide how hot, cold, wet, or windy it might be!

Date:

Astronomy

Feb. 12, 2014 Rise Set
Actual Time 6:58 AM EST 5:28 PM EST
Civil Twilight 6:29 AM EST 5:57 PM EST
Nautical Twilight 5:57 AM EST 6:30 PM EST
Astronomical Twilight 5:25 AM EST 7:02 PM EST
Moon 3:39 PM EST (2/12) 5:14 AM EST (2/12)
Length of Visible Light 11h 27m
Length of Day
10h 30m
Waxing Gibbous, 95% of the Moon is Illuminated
Feb 12
Waxing Gibbous
Feb 14
Full
Feb 22
Last Quarter
Mar 1
New
Mar 8
First Quarter

Hourly Weather History & Observations

Time (EST) Temp. Windchill Dew Point Humidity Pressure Visibility Wind Dir Wind Speed Gust Speed Precip Events Conditions
12:15 AM 3.2 °F -6.2 °F -4.0 °F 72% 30.39 in 10.0 mi NW 4.6 mph - N/A   Clear
12:35 AM 5.0 °F -6.9 °F -2.2 °F 72% 30.39 in 10.0 mi NW 6.9 mph - N/A   Clear
12:55 AM 1.4 °F -6.2 °F -7.6 °F 66% 30.39 in 10.0 mi WNW 3.5 mph - N/A   Clear
1:15 AM 5.0 °F -4.1 °F -0.4 °F 78% 30.39 in 10.0 mi NW 4.6 mph - N/A   Clear
1:35 AM 3.2 °F -4.2 °F -5.8 °F 66% 30.39 in 10.0 mi NW 3.5 mph - N/A   Clear
1:55 AM 1.4 °F - -7.6 °F 66% 30.40 in 10.0 mi Calm Calm - N/A   Clear
2:15 AM 1.4 °F - -4.0 °F 78% 30.39 in 10.0 mi Calm Calm - N/A   Clear
2:35 AM 3.2 °F - -0.4 °F 85% 30.38 in 10.0 mi Calm Calm - N/A   Clear
2:55 AM 3.2 °F -7.8 °F -2.2 °F 78% 30.39 in 10.0 mi WNW 5.8 mph - N/A   Clear
3:15 AM 3.2 °F -7.8 °F -4.0 °F 72% 30.38 in 10.0 mi WNW 5.8 mph - N/A   Clear
3:35 AM 1.4 °F -9.9 °F -5.8 °F 72% 30.40 in 10.0 mi WNW 5.8 mph - N/A   Clear
3:55 AM 1.4 °F -6.2 °F -2.2 °F 85% 30.40 in 10.0 mi WNW 3.5 mph - N/A   Clear
4:15 AM 1.4 °F -6.2 °F -7.6 °F 66% 30.40 in 10.0 mi West 3.5 mph - N/A   Clear
4:35 AM 3.2 °F -4.2 °F -0.4 °F 85% 30.38 in 10.0 mi NW 3.5 mph - N/A   Clear
4:55 AM -2.2 °F - -16.6 °F 50% 30.39 in 10.0 mi Calm Calm - N/A   Clear
5:15 AM -0.4 °F - -4.0 °F 85% 30.40 in 10.0 mi Calm Calm - N/A   Clear
5:35 AM -0.4 °F -8.3 °F -7.6 °F 72% 30.40 in 10.0 mi WSW 3.5 mph - N/A   Clear
5:55 AM -5.8 °F - -11.2 °F 77% 30.39 in 10.0 mi Calm Calm - N/A   Clear
6:15 AM -7.6 °F -22.1 °F -18.4 °F 59% 30.38 in 10.0 mi NNE 6.9 mph - N/A   Clear
6:35 AM -5.8 °F -16.7 °F -5.8 °F 100% 30.38 in 10.0 mi NNE 4.6 mph - N/A   Clear
6:55 AM -5.8 °F - -13.0 °F 71% 30.40 in 10.0 mi Calm Calm - N/A   Clear
7:15 AM -5.8 °F - -11.2 °F 77% 30.43 in 10.0 mi Calm Calm - N/A   Clear
7:35 AM -5.8 °F - -7.6 °F 92% 30.44 in 10.0 mi Calm Calm - N/A   Clear
7:55 AM -5.8 °F - -11.2 °F 77% 30.44 in 10.0 mi Calm Calm - N/A   Clear
8:15 AM -2.2 °F - -5.8 °F 85% 30.44 in 10.0 mi Calm Calm - N/A   Clear
8:35 AM -2.2 °F - -9.4 °F 71% 30.43 in 10.0 mi Calm Calm - N/A   Clear
8:55 AM -0.4 °F - -5.8 °F 78% 30.45 in 10.0 mi Calm Calm - N/A   Clear
9:15 AM -0.4 °F - -7.6 °F 72% 30.43 in 10.0 mi Calm Calm - N/A   Clear
9:35 AM 3.2 °F - -0.4 °F 85% 30.43 in 10.0 mi Calm Calm - N/A   Clear
9:55 AM 8.6 °F - -0.4 °F 67% 30.43 in 10.0 mi Calm Calm - N/A   Clear
10:15 AM 8.6 °F - -2.2 °F 62% 30.43 in 10.0 mi Calm Calm - N/A   Clear
10:35 AM 12.2 °F 4.3 °F 1.4 °F 62% 30.43 in 10.0 mi South 4.6 mph - N/A   Clear
10:55 AM 14.0 °F 8.2 °F -0.4 °F 53% 30.44 in 10.0 mi South 3.5 mph - N/A   Clear
11:15 AM 15.8 °F - 1.4 °F 53% 30.44 in 10.0 mi Calm Calm - N/A   Clear
11:35 AM 17.6 °F - 1.4 °F 49% 30.44 in 10.0 mi Calm Calm - N/A   Clear
11:55 AM 17.6 °F 9.3 °F 1.4 °F 49% 30.44 in 10.0 mi South 5.8 mph - N/A   Clear
12:15 PM 17.6 °F 10.7 °F 1.4 °F 49% 30.43 in 10.0 mi South 4.6 mph - N/A   Clear
12:35 PM 17.6 °F 10.7 °F 1.4 °F 49% 30.42 in 10.0 mi ESE 4.6 mph - N/A   Clear
12:55 PM 19.4 °F 14.3 °F 3.2 °F 49% 30.40 in 10.0 mi ESE 3.5 mph - N/A   Clear
1:15 PM 21.2 °F - 1.4 °F 42% 30.39 in 10.0 mi Calm Calm - N/A   Clear
1:35 PM 19.4 °F 11.5 °F -0.4 °F 42% 30.36 in 10.0 mi SE 5.8 mph - N/A   Clear
1:55 PM 19.4 °F 8.6 °F -2.2 °F 39% 30.34 in 10.0 mi SE 9.2 mph - N/A   Clear
2:15 PM 19.4 °F 10.4 °F -2.2 °F 39% 30.33 in 10.0 mi SE 6.9 mph - N/A   Clear
2:35 PM 21.2 °F 13.6 °F -0.4 °F 39% 30.34 in 10.0 mi ESE 5.8 mph - N/A   Clear
2:55 PM 21.2 °F 13.6 °F -2.2 °F 36% 30.34 in 10.0 mi SE 5.8 mph - N/A   Clear
3:15 PM 21.2 °F 10.9 °F -2.2 °F 36% 30.35 in 10.0 mi SE 9.2 mph - N/A   Clear
3:35 PM 19.4 °F 10.4 °F -2.2 °F 39% 30.35 in 10.0 mi SSE 6.9 mph - N/A   Clear
3:55 PM 19.4 °F 8.6 °F -2.2 °F 39% 30.34 in 10.0 mi SE 9.2 mph - N/A   Clear
4:15 PM 17.6 °F 4.3 °F -4.0 °F 38% 30.33 in 10.0 mi SSE 12.7 mph - N/A   Clear
4:35 PM 17.6 °F 4.3 °F -2.2 °F 42% 30.34 in 10.0 mi SE 12.7 mph - N/A   Clear
4:55 PM 15.8 °F 5.1 °F -2.2 °F 45% 30.34 in 10.0 mi SE 8.1 mph - N/A   Clear
5:15 PM 15.8 °F 3.4 °F -2.2 °F 45% 30.34 in 10.0 mi SE 10.4 mph - N/A   Clear
5:35 PM 14.0 °F 2.9 °F -5.8 °F 41% 30.34 in 10.0 mi SE 8.1 mph - N/A   Clear
5:55 PM 15.8 °F 8.6 °F -2.2 °F 45% 30.33 in 10.0 mi ESE 4.6 mph - N/A   Clear
6:15 PM 14.0 °F 5.1 °F -4.0 °F 45% 30.33 in 10.0 mi ESE 5.8 mph - N/A   Clear
6:35 PM 12.2 °F 4.3 °F -4.0 °F 48% 30.32 in 10.0 mi East 4.6 mph - N/A   Clear
6:55 PM 12.2 °F 2.9 °F -4.0 °F 48% 30.32 in 10.0 mi East 5.8 mph - N/A   Clear
7:15 PM 12.2 °F 4.3 °F -4.0 °F 48% 30.31 in 10.0 mi East 4.6 mph - N/A   Clear
7:35 PM 12.2 °F 2.9 °F -5.8 °F 45% 30.29 in 10.0 mi East 5.8 mph - N/A   Clear
7:55 PM 12.2 °F 0.7 °F -4.0 °F 48% 30.31 in 10.0 mi East 8.1 mph - N/A   Clear
8:15 PM 12.2 °F 1.7 °F -5.8 °F 45% 30.30 in 10.0 mi ESE 6.9 mph - N/A   Clear
8:35 PM 12.2 °F 2.9 °F -2.2 °F 53% 30.30 in 10.0 mi East 5.8 mph - N/A   Clear
8:55 PM 12.2 °F 1.7 °F -2.2 °F 53% 30.31 in 10.0 mi ESE 6.9 mph - N/A   Clear
9:15 PM 12.2 °F 2.9 °F -4.0 °F 48% 30.30 in 10.0 mi East 5.8 mph - N/A   Clear
9:35 PM 10.4 °F -0.4 °F -2.2 °F 57% 30.29 in 10.0 mi East 6.9 mph - N/A   Clear
9:55 PM 12.2 °F 0.7 °F -2.2 °F 53% 30.28 in 10.0 mi East 8.1 mph - N/A   Clear
10:15 PM 12.2 °F 1.7 °F -2.2 °F 53% 30.27 in 10.0 mi ENE 6.9 mph - N/A   Clear
10:35 PM 12.2 °F 0.7 °F -2.2 °F 53% 30.26 in 10.0 mi ENE 8.1 mph - N/A   Clear
10:55 PM 12.2 °F 4.3 °F -2.2 °F 53% 30.26 in 10.0 mi ENE 4.6 mph - N/A   Clear
11:15 PM 12.2 °F 6.1 °F -0.4 °F 57% 30.25 in 10.0 mi ENE 3.5 mph - N/A   Mostly Cloudy
11:35 PM 12.2 °F 6.1 °F -0.4 °F 57% 30.25 in 10.0 mi ENE 3.5 mph - N/A   Overcast
11:55 PM 12.2 °F 2.9 °F 1.4 °F 62% 30.24 in 10.0 mi ENE 5.8 mph - N/A   Overcast